DAL1025 KMSP-KDEN

Flight info

Callsign DAL1025
Flight time 1h 52m
Altitude 36000
Route SCHEP1 RXANN TEYOU LLUKY PORDR AALLE4
Aircraft B738/M-SDE2E3FGHIRWXY/LB1

Departure

Time 2026-05-05 20:27
Airport Minneapolis–Saint Paul International Airport / Wold–Chamberlain Field (KMSP)

Arrival

Time 2026-05-05 22:19
Airport Denver International Airport (KDEN)
Time Latitude Longitude Altitude Speed Heading
2026-05-05 20:08 44.88223 -93.21357 834 ft 0 kts 75°
2026-05-05 20:11 44.88218 -93.21382 826 ft 1 kts 75°
2026-05-05 20:11 44.88217 -93.21391 825 ft 1 kts 75°
2026-05-05 20:11 44.88215 -93.21401 828 ft 1 kts 75°
2026-05-05 20:11 44.88214 -93.21407 828 ft 1 kts 75°
2026-05-05 20:12 44.88213 -93.21411 829 ft 1 kts 75°
2026-05-05 20:12 44.88212 -93.21418 827 ft 1 kts 75°
2026-05-05 20:12 44.88208 -93.21435 829 ft 3 kts 74°
2026-05-05 20:12 44.88203 -93.21462 826 ft 3 kts 74°
2026-05-05 20:13 44.88197 -93.21492 833 ft 3 kts 74°
2026-05-05 20:13 44.88191 -93.21521 824 ft 3 kts 77°
2026-05-05 20:13 44.88189 -93.21542 825 ft 3 kts 97°
2026-05-05 20:13 44.88193 -93.21566 827 ft 2 kts 118°
2026-05-05 20:14 44.88196 -93.21574 827 ft 0 kts 120°
2026-05-05 20:19 44.88195 -93.21571 827 ft 2 kts 120°
2026-05-05 20:19 44.88183 -93.21542 827 ft 4 kts 120°
2026-05-05 20:19 44.88166 -93.21513 830 ft 4 kts 136°
2026-05-05 20:20 44.88133 -93.21483 826 ft 8 kts 153°
2026-05-05 20:20 44.88077 -93.21436 830 ft 10 kts 140°
2026-05-05 20:20 44.88035 -93.21356 831 ft 10 kts 120°
2026-05-05 20:20 44.88016 -93.21263 831 ft 10 kts 96°
2026-05-05 20:21 44.88012 -93.21169 833 ft 10 kts 93°
2026-05-05 20:21 44.87987 -93.21085 833 ft 9 kts 123°
2026-05-05 20:21 44.87953 -93.21008 831 ft 9 kts 121°
2026-05-05 20:21 44.87921 -93.20934 833 ft 9 kts 121°
2026-05-05 20:22 44.87889 -93.20861 829 ft 9 kts 121°
2026-05-05 20:22 44.87857 -93.20786 831 ft 10 kts 122°
2026-05-05 20:22 44.87820 -93.20704 832 ft 10 kts 124°
2026-05-05 20:22 44.87781 -93.20627 831 ft 10 kts 125°
2026-05-05 20:23 44.87745 -93.20549 828 ft 10 kts 122°
2026-05-05 20:23 44.87705 -93.20460 828 ft 12 kts 121°
2026-05-05 20:23 44.87662 -93.20358 828 ft 12 kts 121°
2026-05-05 20:23 44.87619 -93.20258 826 ft 12 kts 121°
2026-05-05 20:24 44.87576 -93.20157 825 ft 12 kts 121°
2026-05-05 20:24 44.87533 -93.20058 825 ft 10 kts 122°
2026-05-05 20:24 44.87483 -93.20033 828 ft 6 kts 201°
2026-05-05 20:24 44.87455 -93.20055 829 ft 4 kts 210°
2026-05-05 20:25 44.87432 -93.20074 829 ft 4 kts 211°
2026-05-05 20:25 44.87409 -93.20095 829 ft 4 kts 213°
2026-05-05 20:25 44.87383 -93.20139 828 ft 8 kts 246°
2026-05-05 20:25 44.87389 -93.20209 823 ft 4 kts 302°
2026-05-05 20:26 44.87391 -93.20214 823 ft 0 kts 302°
2026-05-05 20:26 44.87398 -93.20230 824 ft 6 kts 302°
2026-05-05 20:26 44.87496 -93.20457 824 ft 59 kts 301°
2026-05-05 20:27 44.87824 -93.21208 830 ft 119 kts 301°
2026-05-05 20:27 44.88338 -93.22407 1005 ft 154 kts 300°
2026-05-05 20:27 44.88899 -93.23711 1735 ft 158 kts 300°
2026-05-05 20:27 44.89435 -93.25050 2596 ft 151 kts 288°
2026-05-05 20:28 44.89512 -93.26501 3348 ft 153 kts 259°
2026-05-05 20:28 44.89013 -93.27873 3932 ft 166 kts 237°
2026-05-05 20:28 44.88263 -93.29232 4391 ft 183 kts 237°
2026-05-05 20:28 44.87476 -93.30670 4967 ft 187 kts 237°
2026-05-05 20:29 44.86673 -93.32126 5362 ft 198 kts 237°
2026-05-05 20:29 44.85801 -93.33696 5742 ft 208 kts 236°
2026-05-05 20:29 44.84886 -93.35345 6124 ft 219 kts 236°
2026-05-05 20:29 44.83927 -93.37048 6700 ft 224 kts 235°
2026-05-05 20:30 44.82949 -93.38782 7345 ft 228 kts 236°
2026-05-05 20:30 44.81956 -93.40544 8020 ft 232 kts 235°
2026-05-05 20:30 44.80942 -93.42347 8692 ft 236 kts 235°
2026-05-05 20:30 44.79913 -93.44177 9381 ft 240 kts 235°
2026-05-05 20:31 44.78872 -93.46029 10051 ft 243 kts 236°
2026-05-05 20:31 44.77829 -93.47886 10675 ft 247 kts 235°
2026-05-05 20:31 44.76756 -93.49796 11324 ft 250 kts 236°
2026-05-05 20:31 44.75668 -93.51732 11985 ft 254 kts 236°
2026-05-05 20:32 44.74566 -93.53693 12660 ft 258 kts 236°
2026-05-05 20:32 44.73444 -93.55689 13326 ft 263 kts 236°
2026-05-05 20:32 44.72285 -93.57754 13797 ft 276 kts 236°
2026-05-05 20:32 44.71062 -93.59930 14139 ft 292 kts 236°
2026-05-05 20:33 44.69768 -93.62236 14460 ft 308 kts 237°
2026-05-05 20:33 44.68477 -93.64677 14783 ft 323 kts 238°
2026-05-05 20:33 44.67134 -93.67289 15107 ft 337 kts 238°
2026-05-05 20:33 44.65738 -93.70008 15548 ft 348 kts 238°
2026-05-05 20:34 44.64298 -93.72796 16000 ft 358 kts 237°
2026-05-05 20:34 44.62815 -93.75654 16503 ft 366 kts 237°
2026-05-05 20:34 44.61303 -93.78558 17082 ft 371 kts 237°
2026-05-05 20:34 44.59777 -93.81483 17726 ft 373 kts 237°
2026-05-05 20:35 44.58236 -93.84432 18340 ft 376 kts 237°
2026-05-05 20:35 44.56688 -93.87392 18943 ft 376 kts 237°
2026-05-05 20:35 44.55148 -93.90333 19716 ft 372 kts 238°
2026-05-05 20:35 44.53658 -93.93171 20720 ft 359 kts 239°
2026-05-05 20:36 44.52194 -93.95957 21602 ft 353 kts 239°
2026-05-05 20:36 44.50738 -93.98737 22160 ft 355 kts 240°
2026-05-05 20:36 44.49277 -94.01528 22693 ft 356 kts 240°
2026-05-05 20:36 44.47814 -94.04318 23287 ft 355 kts 240°
2026-05-05 20:37 44.46351 -94.07102 23850 ft 354 kts 240°
2026-05-05 20:37 44.44893 -94.09872 24321 ft 354 kts 240°
2026-05-05 20:37 44.43430 -94.12650 24701 ft 356 kts 240°
2026-05-05 20:37 44.41977 -94.15403 25081 ft 357 kts 240°
2026-05-05 20:38 44.40500 -94.18198 25477 ft 358 kts 240°
2026-05-05 20:38 44.39019 -94.20996 25885 ft 359 kts 240°
2026-05-05 20:38 44.37529 -94.23809 26234 ft 361 kts 240°
2026-05-05 20:38 44.36035 -94.26626 26598 ft 362 kts 240°
2026-05-05 20:39 44.34535 -94.29454 26971 ft 362 kts 240°
2026-05-05 20:39 44.33033 -94.32282 27261 ft 363 kts 239°
2026-05-05 20:39 44.31523 -94.35124 27571 ft 365 kts 239°
2026-05-05 20:39 44.30007 -94.37975 27964 ft 365 kts 239°
2026-05-05 20:40 44.28501 -94.40801 28527 ft 361 kts 239°
2026-05-05 20:40 44.27013 -94.43590 29131 ft 356 kts 239°
2026-05-05 20:40 44.25564 -94.46304 29665 ft 352 kts 239°
2026-05-05 20:40 44.24104 -94.49038 30120 ft 350 kts 239°
2026-05-05 20:41 44.22649 -94.51760 30437 ft 350 kts 239°
2026-05-05 20:41 44.21188 -94.54491 30668 ft 352 kts 239°
2026-05-05 20:41 44.19720 -94.57236 30930 ft 353 kts 239°
2026-05-05 20:41 44.18249 -94.59980 31218 ft 354 kts 239°
2026-05-05 20:42 44.16774 -94.62731 31471 ft 355 kts 239°
2026-05-05 20:42 44.15312 -94.65454 31744 ft 356 kts 239°
2026-05-05 20:42 44.13829 -94.68214 32021 ft 356 kts 239°
2026-05-05 20:42 44.12344 -94.70976 32251 ft 357 kts 239°
2026-05-05 20:43 44.10862 -94.73727 32618 ft 355 kts 239°
2026-05-05 20:43 44.09381 -94.76473 32939 ft 354 kts 240°
2026-05-05 20:43 44.07901 -94.79218 33175 ft 355 kts 240°
2026-05-05 20:43 44.06416 -94.81970 33426 ft 356 kts 240°
2026-05-05 20:44 44.04929 -94.84723 33726 ft 356 kts 240°
2026-05-05 20:44 44.03444 -94.87470 33990 ft 356 kts 240°
2026-05-05 20:44 44.01977 -94.90182 34197 ft 356 kts 240°
2026-05-05 20:44 44.00483 -94.92938 34357 ft 358 kts 240°
2026-05-05 20:45 43.97524 -94.98515 34682 ft 360 kts 240°
2026-05-05 20:45 43.96060 -95.01345 34839 ft 361 kts 240°
2026-05-05 20:45 43.94593 -95.04182 35049 ft 361 kts 240°
2026-05-05 20:46 43.93127 -95.07013 35233 ft 362 kts 240°
2026-05-05 20:46 43.91652 -95.09858 35383 ft 364 kts 240°
2026-05-05 20:46 43.90177 -95.12693 35696 ft 359 kts 240°
2026-05-05 20:46 43.88732 -95.15464 35909 ft 359 kts 240°
2026-05-05 20:47 43.85779 -95.21125 35969 ft 365 kts 240°
2026-05-05 20:47 43.82805 -95.26806 35966 ft 363 kts 240°
2026-05-05 20:48 43.79850 -95.32438 35979 ft 362 kts 240°
2026-05-05 20:48 43.76866 -95.38126 35988 ft 369 kts 239°
2026-05-05 20:49 43.73846 -95.43867 35980 ft 373 kts 239°
2026-05-05 20:49 43.70777 -95.49681 35976 ft 375 kts 239°
2026-05-05 20:50 43.67705 -95.55488 35963 ft 370 kts 239°
2026-05-05 20:50 43.64700 -95.61154 35963 ft 363 kts 239°
2026-05-05 20:51 43.61734 -95.66749 35993 ft 364 kts 239°
2026-05-05 20:51 43.58743 -95.72380 35999 ft 364 kts 239°
2026-05-05 20:52 43.55737 -95.78027 35994 ft 366 kts 239°
2026-05-05 20:52 43.52716 -95.83688 35991 ft 367 kts 239°
2026-05-05 20:53 43.49679 -95.89370 35983 ft 369 kts 239°
2026-05-05 20:53 43.46649 -95.95026 35959 ft 369 kts 239°
2026-05-05 20:54 43.43597 -96.00711 35984 ft 369 kts 239°
2026-05-05 20:54 43.40545 -96.06389 35983 ft 369 kts 239°
2026-05-05 20:55 43.37514 -96.12016 35983 ft 368 kts 239°
2026-05-05 20:55 43.34463 -96.17670 35986 ft 368 kts 239°
2026-05-05 20:56 43.31413 -96.23310 35985 ft 367 kts 239°
2026-05-05 20:56 43.28617 -96.29116 35992 ft 362 kts 247°
2026-05-05 20:57 43.26564 -96.35389 35994 ft 360 kts 249°
2026-05-05 20:57 43.24543 -96.41624 35970 ft 359 kts 249°
2026-05-05 20:58 43.22507 -96.47866 35997 ft 358 kts 249°
2026-05-05 20:58 43.20466 -96.54095 36000 ft 358 kts 249°
2026-05-05 20:59 43.18419 -96.60320 36007 ft 358 kts 249°
2026-05-05 20:59 43.16382 -96.66503 36008 ft 359 kts 249°
2026-05-05 21:00 43.14326 -96.72727 36019 ft 359 kts 249°
2026-05-05 21:00 43.12263 -96.78957 36020 ft 359 kts 249°
2026-05-05 21:01 43.10194 -96.85191 36020 ft 360 kts 248°
2026-05-05 21:01 43.08119 -96.91427 36033 ft 361 kts 248°
2026-05-05 21:02 43.06050 -96.97633 36028 ft 361 kts 248°
2026-05-05 21:02 43.03960 -97.03886 36038 ft 362 kts 248°
2026-05-05 21:03 43.01865 -97.10141 36031 ft 362 kts 248°
2026-05-05 21:03 42.99766 -97.16392 36017 ft 361 kts 248°
2026-05-05 21:04 42.97683 -97.22581 36025 ft 361 kts 248°
2026-05-05 21:04 42.95588 -97.28791 36015 ft 360 kts 248°
2026-05-05 21:05 42.93495 -97.34982 36019 ft 358 kts 248°
2026-05-05 21:05 42.91408 -97.41141 36017 ft 357 kts 248°
2026-05-05 21:06 42.89336 -97.47243 36018 ft 356 kts 248°
2026-05-05 21:06 42.87252 -97.53365 36058 ft 356 kts 248°
2026-05-05 21:07 42.85167 -97.59479 36052 ft 355 kts 248°
2026-05-05 21:07 42.83080 -97.65585 36054 ft 356 kts 248°
2026-05-05 21:08 42.80999 -97.71658 36058 ft 357 kts 248°
2026-05-05 21:08 42.78896 -97.77783 36053 ft 357 kts 248°
2026-05-05 21:09 42.76787 -97.83912 36058 ft 358 kts 248°
2026-05-05 21:09 42.74664 -97.90065 36035 ft 360 kts 248°
2026-05-05 21:10 42.72535 -97.96224 36046 ft 360 kts 248°
2026-05-05 21:10 42.70419 -98.02329 36050 ft 360 kts 248°
2026-05-05 21:11 42.68284 -98.08478 36049 ft 360 kts 247°
2026-05-05 21:11 42.66146 -98.14621 36047 ft 359 kts 247°
2026-05-05 21:12 42.64012 -98.20740 36046 ft 358 kts 247°
2026-05-05 21:12 42.61876 -98.26852 36048 ft 358 kts 247°
2026-05-05 21:13 42.59755 -98.32907 36045 ft 357 kts 247°
2026-05-05 21:13 42.57618 -98.38995 36040 ft 358 kts 247°
2026-05-05 21:14 42.55475 -98.45085 36038 ft 358 kts 247°
2026-05-05 21:14 42.53328 -98.51178 36040 ft 358 kts 247°
2026-05-05 21:15 42.51187 -98.57239 36038 ft 359 kts 247°
2026-05-05 21:15 42.49016 -98.63343 36035 ft 360 kts 245°
2026-05-05 21:16 42.46432 -98.69196 36038 ft 362 kts 242°
2026-05-05 21:16 42.43759 -98.74990 36030 ft 363 kts 242°
2026-05-05 21:17 42.41083 -98.80793 36039 ft 363 kts 242°
2026-05-05 21:17 42.38429 -98.86561 36036 ft 364 kts 242°
2026-05-05 21:18 42.35755 -98.92371 36036 ft 364 kts 242°
2026-05-05 21:18 42.33073 -98.98188 36030 ft 365 kts 242°
2026-05-05 21:19 42.30389 -99.03999 36028 ft 365 kts 242°
2026-05-05 21:19 42.27721 -99.09767 36025 ft 365 kts 242°
2026-05-05 21:20 42.25029 -99.15575 36027 ft 365 kts 242°
2026-05-05 21:20 42.22334 -99.21376 36013 ft 365 kts 242°
2026-05-05 21:21 42.19638 -99.27169 36018 ft 364 kts 242°
2026-05-05 21:21 42.16959 -99.32917 36025 ft 364 kts 242°
2026-05-05 21:22 42.14258 -99.38698 36011 ft 365 kts 241°
2026-05-05 21:22 42.11555 -99.44472 36007 ft 364 kts 241°
2026-05-05 21:23 42.08848 -99.50245 36013 ft 364 kts 241°
2026-05-05 21:23 42.06142 -99.56004 36009 ft 364 kts 241°
2026-05-05 21:24 42.03449 -99.61723 36011 ft 364 kts 241°
2026-05-05 21:24 42.00733 -99.67483 35999 ft 365 kts 241°
2026-05-05 21:25 41.98016 -99.73233 35998 ft 364 kts 241°
2026-05-05 21:25 41.95300 -99.78968 36000 ft 362 kts 241°
2026-05-05 21:26 41.92614 -99.84627 35991 ft 357 kts 241°
2026-05-05 21:26 41.89958 -99.90216 36011 ft 357 kts 241°
2026-05-05 21:27 41.87279 -99.95846 36007 ft 359 kts 241°
2026-05-05 21:27 41.84586 -100.01493 36008 ft 360 kts 241°
2026-05-05 21:28 41.81881 -100.07154 36004 ft 361 kts 240°
2026-05-05 21:28 41.79184 -100.12786 36006 ft 362 kts 240°
2026-05-05 21:29 41.76461 -100.18461 36007 ft 362 kts 240°
2026-05-05 21:29 41.73733 -100.24139 35976 ft 363 kts 240°
2026-05-05 21:30 41.71002 -100.29811 36008 ft 363 kts 240°
2026-05-05 21:30 41.68285 -100.35443 36015 ft 363 kts 240°
2026-05-05 21:31 41.65543 -100.41115 36011 ft 363 kts 240°
2026-05-05 21:31 41.62800 -100.46782 36013 ft 363 kts 240°
2026-05-05 21:32 41.60053 -100.52444 36012 ft 363 kts 240°
2026-05-05 21:32 41.57323 -100.58061 36009 ft 363 kts 240°
2026-05-05 21:33 41.54571 -100.63714 36012 ft 363 kts 240°
2026-05-05 21:33 41.51814 -100.69365 36015 ft 364 kts 240°
2026-05-05 21:34 41.49049 -100.75024 36028 ft 364 kts 240°
2026-05-05 21:34 41.46297 -100.80645 36022 ft 364 kts 240°
2026-05-05 21:35 41.43521 -100.86307 36026 ft 366 kts 240°
2026-05-05 21:35 41.40729 -100.91992 36024 ft 367 kts 240°
2026-05-05 21:36 41.37934 -100.97669 36023 ft 366 kts 240°
2026-05-05 21:36 41.35547 -101.03555 36037 ft 363 kts 248°
2026-05-05 21:37 41.33622 -101.09755 36035 ft 362 kts 248°
2026-05-05 21:37 41.31688 -101.15933 36034 ft 362 kts 248°
2026-05-05 21:38 41.29723 -101.22088 36044 ft 361 kts 248°
2026-05-05 21:38 41.27744 -101.28235 36030 ft 362 kts 248°
2026-05-05 21:39 41.25774 -101.34335 36028 ft 362 kts 248°
2026-05-05 21:39 41.23785 -101.40480 36033 ft 362 kts 248°
2026-05-05 21:40 41.21794 -101.46633 36030 ft 363 kts 248°
2026-05-05 21:40 41.19812 -101.52813 36027 ft 364 kts 248°
2026-05-05 21:41 41.17826 -101.59000 36013 ft 364 kts 248°
2026-05-05 21:41 41.15848 -101.65146 36021 ft 365 kts 248°
2026-05-05 21:42 41.13850 -101.71336 36021 ft 366 kts 248°
2026-05-05 21:42 41.11841 -101.77547 36017 ft 367 kts 248°
2026-05-05 21:43 41.09826 -101.83762 36019 ft 367 kts 248°
2026-05-05 21:43 41.07819 -101.89938 36020 ft 367 kts 248°
2026-05-05 21:44 41.05793 -101.96158 36028 ft 368 kts 248°
2026-05-05 21:44 41.03761 -102.02383 36032 ft 369 kts 248°
2026-05-05 21:45 41.01721 -102.08618 36025 ft 369 kts 248°
2026-05-05 21:45 40.99694 -102.14803 36037 ft 368 kts 248°
2026-05-05 21:46 40.97649 -102.21027 36034 ft 370 kts 248°
2026-05-05 21:46 40.95588 -102.27283 36028 ft 372 kts 248°
2026-05-05 21:47 40.93518 -102.33551 36010 ft 371 kts 248°
2026-05-05 21:47 40.91467 -102.39750 36015 ft 370 kts 248°
2026-05-05 21:48 40.89406 -102.45967 36013 ft 369 kts 248°
2026-05-05 21:48 40.87347 -102.52168 36001 ft 368 kts 247°
2026-05-05 21:49 40.86317 -102.55261 35856 ft 366 kts 247°
2026-05-05 21:49 40.85305 -102.58300 35778 ft 357 kts 247°
2026-05-05 21:49 40.83303 -102.64300 35647 ft 360 kts 247°
2026-05-05 21:50 40.82289 -102.67337 35403 ft 364 kts 247°
2026-05-05 21:50 40.81258 -102.70418 35182 ft 367 kts 247°
2026-05-05 21:50 40.80224 -102.73509 34830 ft 369 kts 247°
2026-05-05 21:50 40.79185 -102.76608 34184 ft 370 kts 247°
2026-05-05 21:51 40.78143 -102.79715 33517 ft 371 kts 246°
2026-05-05 21:51 40.77096 -102.82833 32810 ft 371 kts 246°
2026-05-05 21:51 40.76064 -102.85899 32127 ft 371 kts 246°
2026-05-05 21:51 40.75015 -102.89013 31544 ft 372 kts 246°
2026-05-05 21:52 40.72858 -102.95389 30852 ft 391 kts 246°
2026-05-05 21:52 40.71740 -102.98690 30509 ft 395 kts 246°
2026-05-05 21:52 40.70618 -103.01996 30153 ft 395 kts 247°
2026-05-05 21:53 40.69496 -103.05300 29790 ft 396 kts 247°
2026-05-05 21:53 40.68370 -103.08615 29395 ft 396 kts 247°
2026-05-05 21:53 40.67265 -103.11863 29002 ft 392 kts 247°
2026-05-05 21:53 40.66148 -103.15147 28640 ft 394 kts 247°
2026-05-05 21:54 40.65018 -103.18464 28274 ft 400 kts 247°
2026-05-05 21:54 40.63882 -103.21788 27884 ft 395 kts 247°
2026-05-05 21:54 40.62752 -103.25095 27525 ft 398 kts 247°
2026-05-05 21:54 40.61610 -103.28434 27168 ft 403 kts 247°
2026-05-05 21:55 40.60457 -103.31806 26814 ft 406 kts 247°
2026-05-05 21:55 40.59307 -103.35164 26466 ft 409 kts 247°
2026-05-05 21:55 40.58136 -103.38579 26117 ft 411 kts 247°
2026-05-05 21:55 40.56962 -103.42003 25768 ft 411 kts 247°
2026-05-05 21:56 40.55784 -103.45430 25389 ft 411 kts 247°
2026-05-05 21:56 40.54606 -103.48849 25047 ft 409 kts 248°
2026-05-05 21:56 40.53435 -103.52253 24697 ft 408 kts 248°
2026-05-05 21:56 40.52269 -103.55638 24364 ft 406 kts 248°
2026-05-05 21:57 40.51110 -103.59004 24034 ft 403 kts 248°
2026-05-05 21:57 40.49957 -103.62347 23709 ft 401 kts 248°
2026-05-05 21:57 40.48813 -103.65661 23295 ft 394 kts 248°
2026-05-05 21:57 40.47708 -103.68861 22865 ft 385 kts 248°
2026-05-05 21:58 40.46612 -103.72028 22432 ft 377 kts 248°
2026-05-05 21:58 40.45536 -103.75129 22006 ft 370 kts 248°
2026-05-05 21:58 40.44377 -103.78096 21720 ft 361 kts 243°
2026-05-05 21:58 40.43099 -103.80887 21442 ft 353 kts 241°
2026-05-05 21:59 40.41814 -103.83584 21178 ft 344 kts 241°
2026-05-05 21:59 40.40561 -103.86221 20903 ft 337 kts 241°
2026-05-05 21:59 40.39339 -103.88824 20657 ft 335 kts 242°
2026-05-05 21:59 40.38138 -103.91411 20419 ft 338 kts 242°
2026-05-05 22:00 40.36917 -103.94056 20162 ft 339 kts 242°
2026-05-05 22:00 40.35702 -103.96691 19899 ft 334 kts 242°
2026-05-05 22:00 40.34513 -103.99271 19639 ft 327 kts 242°
2026-05-05 22:00 40.33346 -104.01799 19389 ft 321 kts 242°
2026-05-05 22:01 40.32200 -104.04277 19148 ft 315 kts 242°
2026-05-05 22:01 40.30859 -104.06535 18855 ft 317 kts 227°
2026-05-05 22:01 40.29177 -104.08384 18592 ft 314 kts 224°
2026-05-05 22:01 40.27481 -104.10160 18307 ft 311 kts 224°
2026-05-05 22:02 40.25823 -104.11895 17974 ft 307 kts 224°
2026-05-05 22:02 40.24174 -104.13633 17681 ft 303 kts 225°
2026-05-05 22:02 40.22550 -104.15356 17421 ft 298 kts 225°
2026-05-05 22:02 40.20955 -104.17056 17150 ft 294 kts 225°
2026-05-05 22:03 40.19383 -104.18735 16881 ft 290 kts 224°
2026-05-05 22:03 40.17829 -104.20396 16630 ft 287 kts 224°
2026-05-05 22:03 40.16284 -104.22045 16338 ft 286 kts 224°
2026-05-05 22:03 40.14771 -104.23659 16085 ft 284 kts 224°
2026-05-05 22:04 40.13247 -104.25283 15833 ft 282 kts 224°
2026-05-05 22:04 40.11728 -104.26900 15580 ft 281 kts 223°
2026-05-05 22:04 40.10209 -104.28515 15315 ft 281 kts 223°
2026-05-05 22:04 40.08699 -104.30122 15065 ft 281 kts 223°
2026-05-05 22:05 40.07183 -104.31734 14814 ft 281 kts 223°
2026-05-05 22:05 40.05667 -104.33345 14561 ft 282 kts 223°
2026-05-05 22:05 40.04144 -104.34963 14302 ft 282 kts 223°
2026-05-05 22:05 40.02618 -104.36583 14039 ft 283 kts 223°
2026-05-05 22:06 40.01107 -104.38186 13778 ft 284 kts 222°
2026-05-05 22:06 39.99572 -104.39814 13482 ft 285 kts 222°
2026-05-05 22:06 39.98033 -104.41443 13206 ft 285 kts 222°
2026-05-05 22:06 39.96497 -104.43069 12956 ft 285 kts 221°
2026-05-05 22:07 39.94963 -104.44697 12737 ft 284 kts 221°
2026-05-05 22:07 39.93432 -104.46321 12517 ft 283 kts 221°
2026-05-05 22:07 39.91908 -104.47935 12312 ft 282 kts 220°
2026-05-05 22:07 39.90312 -104.49379 12072 ft 280 kts 205°
2026-05-05 22:08 39.88443 -104.49998 11891 ft 278 kts 188°
2026-05-05 22:08 39.86549 -104.50084 11709 ft 274 kts 182°
2026-05-05 22:08 39.84652 -104.50073 11502 ft 271 kts 182°
2026-05-05 22:08 39.82781 -104.50073 11314 ft 267 kts 182°
2026-05-05 22:09 39.80935 -104.50088 11116 ft 263 kts 182°
2026-05-05 22:09 39.79131 -104.50120 11025 ft 255 kts 182°
2026-05-05 22:09 39.77392 -104.50184 11007 ft 245 kts 183°
2026-05-05 22:09 39.75727 -104.50255 10994 ft 233 kts 184°
2026-05-05 22:10 39.74124 -104.50329 10995 ft 229 kts 184°
2026-05-05 22:10 39.72523 -104.50396 11006 ft 232 kts 183°
2026-05-05 22:10 39.70907 -104.50479 11009 ft 234 kts 184°
2026-05-05 22:10 39.69278 -104.50574 11012 ft 235 kts 183°
2026-05-05 22:11 39.67661 -104.50643 11010 ft 236 kts 183°
2026-05-05 22:11 39.66016 -104.50702 11007 ft 236 kts 183°
2026-05-05 22:11 39.64384 -104.50782 10994 ft 232 kts 185°
2026-05-05 22:11 39.62778 -104.50883 10985 ft 230 kts 184°
2026-05-05 22:12 39.61168 -104.50942 10991 ft 233 kts 182°
2026-05-05 22:12 39.59546 -104.50998 10990 ft 234 kts 183°
2026-05-05 22:12 39.57917 -104.51090 10991 ft 234 kts 186°
2026-05-05 22:12 39.56422 -104.51724 10973 ft 231 kts 219°
2026-05-05 22:13 39.55481 -104.53383 10969 ft 233 kts 246°
2026-05-05 22:13 39.55178 -104.55456 10924 ft 238 kts 269°
2026-05-05 22:13 39.55559 -104.57567 10754 ft 245 kts 289°
2026-05-05 22:13 39.56277 -104.59562 10528 ft 245 kts 291°
2026-05-05 22:14 39.57011 -104.61582 10173 ft 250 kts 291°
2026-05-05 22:14 39.57735 -104.63581 10086 ft 241 kts 293°
2026-05-05 22:14 39.58750 -104.65245 9961 ft 234 kts 323°
2026-05-05 22:14 39.60227 -104.66190 9660 ft 243 kts 348°
2026-05-05 22:15 39.61880 -104.66363 9373 ft 241 kts
2026-05-05 22:15 39.63549 -104.66332 9046 ft 239 kts
2026-05-05 22:15 39.65206 -104.66290 8721 ft 237 kts
2026-05-05 22:15 39.66843 -104.66258 8420 ft 234 kts
2026-05-05 22:16 39.68459 -104.66233 8138 ft 230 kts
2026-05-05 22:16 39.70017 -104.66213 7845 ft 217 kts
2026-05-05 22:16 39.71482 -104.66197 7568 ft 205 kts
2026-05-05 22:16 39.72867 -104.66179 7297 ft 194 kts
2026-05-05 22:17 39.74178 -104.66161 7064 ft 184 kts
2026-05-05 22:17 39.75410 -104.66146 7001 ft 170 kts
2026-05-05 22:17 39.76557 -104.66131 6773 ft 166 kts
2026-05-05 22:17 39.77706 -104.66116 6587 ft 165 kts
2026-05-05 22:18 39.78853 -104.66103 6351 ft 164 kts
2026-05-05 22:18 39.79993 -104.66089 6078 ft 163 kts
2026-05-05 22:18 39.81116 -104.66075 5824 ft 160 kts
2026-05-05 22:18 39.82221 -104.66067 5576 ft 158 kts
2026-05-05 22:19 39.83317 -104.66051 5365 ft 153 kts
2026-05-05 22:19 39.84285 -104.66037 5375 ft 123 kts
2026-05-05 22:19 39.84903 -104.66029 5375 ft 54 kts
2026-05-05 22:19 39.85144 -104.66065 5378 ft 30 kts 342°
2026-05-05 22:20 39.85248 -104.66125 5383 ft 13 kts 330°
2026-05-05 22:20 39.85327 -104.66184 5384 ft 13 kts 330°
2026-05-05 22:20 39.85407 -104.66232 5384 ft 13 kts 345°
2026-05-05 22:20 39.85492 -104.66237 5389 ft 12 kts
2026-05-05 22:21 39.85576 -104.66236 5390 ft 12 kts
2026-05-05 22:21 39.85658 -104.66237 5392 ft 12 kts 359°
2026-05-05 22:21 39.85737 -104.66237 5394 ft 11 kts
2026-05-05 22:21 39.85815 -104.66237 5392 ft 11 kts
2026-05-05 22:22 39.85890 -104.66235 5392 ft 11 kts
2026-05-05 22:22 39.85962 -104.66232 5390 ft 10 kts
2026-05-05 22:22 39.86033 -104.66231 5389 ft 10 kts
2026-05-05 22:22 39.86096 -104.66256 5387 ft 10 kts 311°
2026-05-05 22:23 39.86106 -104.66341 5394 ft 10 kts 270°
2026-05-05 22:23 39.86106 -104.66433 5391 ft 11 kts 270°
2026-05-05 22:23 39.86116 -104.66547 5386 ft 14 kts 285°
2026-05-05 22:23 39.86126 -104.66682 5381 ft 15 kts 273°
2026-05-05 22:24 39.86129 -104.66816 5379 ft 14 kts 271°
2026-05-05 22:24 39.86130 -104.66942 5378 ft 12 kts 270°
2026-05-05 22:24 39.86164 -104.67030 5376 ft 11 kts 335°
2026-05-05 22:24 39.86231 -104.67033 5375 ft 9 kts
2026-05-05 22:25 39.86251 -104.67033 5374 ft 0 kts